GALAXY 32

导读 | 星芒AI

GALAXY 32 是一颗由美国公司建造的通信卫星,主要用于提供广播和数据传输服务。该卫星运行在地球同步轨道上,覆盖范围广泛,支持电视信号传输和企业通信需求。GALAXY 32 由 Intelsat 运营,于2010年发射,搭载先进的C波段和Ku波段转发器,提升了通信容量和信号质量。其设计寿命为15年,是北美地区重要的通信基础设施之一。

基本信息
目录编号:
54244
目录名称:
GALAXY 32
国际标识:
2022-153B
轨道中心:
EARTH
卫星名称:
GALAXY 32
卫星全名:
--
卫星状态:
在轨 (已飞行1127 天)
发射日期:
2022-11-12 UTC
国别 :
美国 (US)
星等 :
--
轨道信息
数据来源 国际轨道数据 AOE轨道数据
星历时间 2025-12-12T21:02:51+0800
20小时前
查看轨道信息
2025-12-11T16:00:00+0800
2天前
查看轨道信息
半长轴 42164.672km 42165.093km
偏心率 0.0002585 0.0002475
轨道倾角 0.011° 0.009°
近地点辐角 300.840° 318.052°
升交点赤经 11.815° 355.497°
平近点角 233.548° 155.740°
近地点 35775.637km 35776.522km
远地点 35797.437km 35797.394km
周期 1436.094分钟 1436.115分钟
每日圈数 1.00272 1.002705
详细信息
使用方式:
暂无
2D轨道图
3D轨道图
轨道高度分析图
轨道倾角分析图
轨道综合分析图
查看轨道综合分析图